QPF
0.00 0.00 0.00 0.00 0.00 0.00 0.00 0.00 0.00 0.00 0.00 0.00 0.00 0.00 0.00 0.00 0.00 0.01 0.01 0.01 0.01 0.01 0.01 0.01 0.01 0.01 0.02 0.04 0.05 0.06 0.09 0.11 0.14 0.18 0.20 0.20 0.22 0.32 0.39 0.41 0.35 0.29 0.24 0.22
0.00 0.00 0.00 0.00 0.00 0.00 0.00 0.00 0.00 0.00 0.00 0.00 0.00 0.00 0.00 0.00 0.00 0.00 0.01 0.01 0.01 0.01 0.01 0.01 0.01 0.01 0.01 0.01 0.02 0.03 0.04 0.05 0.07 0.11 0.14 0.18 0.25 0.33 0.40 0.48 0.42 0.37 0.36 0.34
0.00 0.00 0.00 0.00 0.00 0.00 0.00 0.00 0.00 0.00 0.00 0.00 0.00 0.00 0.00 0.00 0.01 0.01 0.02 0.02 0.02 0.02 0.02 0.01 0.00 0.00 0.01 0.01 0.01 0.01 0.02 0.03 0.04 0.06 0.09 0.14 0.18 0.23 0.28 0.34 0.41 0.47 0.47 0.43
0.00 0.00 0.00 0.00 0.00 0.00 0.00 0.00 0.00 0.00 0.00 0.00 0.00 0.00 0.00 0.00 0.01 0.01 0.02 0.02 0.02 0.03 0.02 0.01 0.00 0.01 0.01 0.00 0.00 0.01 0.01 0.01 0.01 0.02 0.04 0.05 0.08 0.14 0.20 0.29 0.41 0.50 0.48 0.44
0.00 0.00 0.00 0.00 0.00 0.00 0.00 0.00 0.00 0.00 0.00 0.00 0.00 0.00 0.00 0.00 0.00 0.01 0.01 0.02 0.02 0.05 0.04 0.02 0.01 0.01 0.01 0.01 0.00 0.00 0.00 0.00 0.00 0.00 0.01 0.02 0.04 0.08 0.12 0.18 0.26 0.33 0.36 0.39
0.00 0.00 0.00 0.00 0.00 0.00 0.00 0.00 0.00 0.00 0.00 0.00 0.00 0.00 0.00 0.00 0.00 0.00 0.01 0.03 0.04 0.06 0.07 0.05 0.04 0.04 0.03 0.02 0.01 0.00 0.00 0.00 0.00 0.00 0.00 0.01 0.02 0.03 0.06 0.09 0.14 0.20 0.23 0.28
0.00 0.00 0.00 0.00 0.00 0.00 0.00 0.00 0.00 0.00 0.00 0.00 0.00 0.00 0.00 0.00 0.00 0.01 0.03 0.03 0.04 0.07 0.09 0.09 0.09 0.07 0.07 0.03 0.02 0.01 0.00 0.00 0.00 0.00 0.00 0.00 0.01 0.02 0.03 0.06 0.08 0.10 0.13 0.16
0.00 0.00 0.00 0.00 0.00 0.00 0.00 0.00 0.00 0.00 0.00 0.00 0.00 0.00 0.01 0.01 0.01 0.02 0.03 0.04 0.07 0.11 0.12 0.11 0.13 0.12 0.08 0.05 0.04 0.02 0.01 0.01 0.01 0.00 0.01 0.01 0.01 0.01 0.02 0.03 0.05 0.06 0.06 0.07
0.00 0.00 0.00 0.00 0.00 0.00 0.00 0.00 0.00 0.00 0.00 0.00 0.00 0.00 0.01 0.01 0.02 0.02 0.03 0.06 0.08 0.10 0.16 0.20 0.18 0.11 0.09 0.09 0.09 0.06 0.04 0.03 0.02 0.01 0.02 0.02 0.02 0.01 0.01 0.02 0.02 0.03 0.04 0.05
0.00 0.00 0.00 0.00 0.00 0.00 0.00 0.00 0.00 0.00 0.00 0.00 0.00 0.01 0.03 0.03 0.03 0.03 0.05 0.07 0.06 0.07 0.12 0.17 0.15 0.13 0.15 0.16 0.16 0.13 0.10 0.08 0.06 0.03 0.02 0.02 0.01 0.01 0.01 0.02 0.02 0.02 0.03 0.05
0.00 0.00 0.00 0.00 0.00 0.00 0.00 0.00 0.00 0.00 0.00 0.00 0.01 0.02 0.03 0.03 0.03 0.05 0.07 0.07 0.05 0.06 0.09 0.11 0.12 0.16 0.14 0.13 0.13 0.12 0.09 0.09 0.08 0.05 0.04 0.05 0.05 0.02 0.02 0.02 0.01 0.01 0.02 0.03
0.00 0.00 0.00 0.00 0.00 0.00 0.00 0.00 0.00 0.00 0.00 0.00 0.01 0.01 0.01 0.01 0.02 0.03 0.05 0.06 0.05 0.05 0.05 0.07 0.08 0.10 0.08 0.07 0.07 0.07 0.08 0.08 0.08 0.06 0.05 0.05 0.04 0.03 0.02 0.02 0.01 0.01 0.01 0.02
0.00 0.00 0.00 0.00 0.00 0.00 0.00 0.00 0.00 0.00 0.00 0.00 0.00 0.01 0.01 0.01 0.01 0.02 0.02 0.03 0.03 0.02 0.02 0.03 0.05 0.08 0.06 0.06 0.05 0.04 0.04 0.04 0.05 0.06 0.05 0.05 0.04 0.03 0.03 0.03 0.03 0.03 0.03 0.02
0.00 0.00 0.00 0.00 0.00 0.00 0.00 0.00 0.00 0.00 0.00 0.00 0.00 0.01 0.00 0.00 0.01 0.01 0.02 0.02 0.01 0.01 0.01 0.01 0.02 0.03 0.03 0.03 0.02 0.01 0.01 0.02 0.02 0.03 0.03 0.04 0.05 0.04 0.04 0.04 0.03 0.02 0.02 0.02
0.00 0.00 0.00 0.00 0.00 0.00 0.00 0.00 0.00 0.00 0.00 0.00 0.00 0.00 0.00 0.00 0.00 0.01 0.02 0.02 0.02 0.01 0.01 0.01 0.00 0.00 0.00 0.00 0.00 0.00 0.00 0.00 0.00 0.00 0.01 0.01 0.02 0.02 0.02 0.02 0.02 0.02 0.02 0.02
0.00 0.00 0.00 0.00 0.00 0.00 0.00 0.00 0.00 0.00 0.00 0.00 0.00 0.00 0.00 0.00 0.00 0.00 0.01 0.01 0.01 0.01 0.01 0.00 0.00 0.00 0.00 0.00 0.00 0.00 0.00 0.00 0.00 0.00 0.00 0.00 0.00 0.00 0.00 0.00 0.00 0.00 0.01 0.01
0.00 0.00 0.00 0.00 0.00 0.00 0.00 0.00 0.00 0.00 0.00 0.00 0.00 0.00 0.00 0.00 0.00 0.00 0.00 0.01 0.01 0.00 0.00 0.00 0.00 0.00 0.00 0.00 0.00 0.00 0.00 0.00 0.00 0.00 0.00 0.00 0.00 0.00 0.00 0.00 0.00 0.00 0.00 0.00
0.00 0.00 0.00 0.00 0.00 0.00 0.00 0.00 0.00 0.00 0.00 0.00 0.00 0.00 0.00 0.00 0.00 0.00 0.00 0.00 0.00 0.00 0.00 0.00 0.00 0.00 0.00 0.00 0.00 0.00 0.00 0.00 0.00 0.00 0.00 0.00 0.00 0.00 0.00 0.00 0.00 0.00 0.00 0.00
0.00 0.00 0.00 0.00 0.00 0.00 0.00 0.00 0.00 0.00 0.00 0.00 0.00 0.00 0.00 0.00 0.00 0.00 0.00 0.00 0.00 0.00 0.00 0.00 0.00 0.00 0.00 0.00 0.00 0.00 0.00 0.00 0.00 0.00 0.00 0.00 0.00 0.00 0.00 0.00 0.00 0.00 0.00 0.00
0.00 0.00 0.00 0.00 0.00 0.00 0.00 0.00 0.00 0.00 0.00 0.00 0.00 0.00 0.00 0.00 0.00 0.00 0.00 0.00 0.00 0.00 0.00 0.00 0.00 0.00 0.00 0.00 0.00 0.00 0.00 0.00 0.00 0.00 0.00 0.00 0.00 0.00 0.00 0.00 0.00 0.00 0.00 0.00
0.00 0.00 0.00 0.00 0.00 0.00 0.00 0.00 0.00 0.00 0.00 0.00 0.00 0.00 0.00 0.00 0.00 0.00 0.00 0.00 0.00 0.00 0.00 0.00 0.00 0.00 0.00 0.00 0.00 0.00 0.00 0.00 0.00 0.00 0.00 0.00 0.00 0.00 0.00 0.00 0.00 0.00 0.00 0.00
0.00 0.00 0.00 0.00 0.00 0.00 0.00 0.00 0.00 0.00 0.00 0.00 0.00 0.00 0.00 0.00 0.00 0.00 0.00 0.00 0.00 0.00 0.00 0.00 0.00 0.00 0.00 0.00 0.00 0.00 0.00 0.00 0.00 0.00 0.00 0.00 0.00 0.00 0.00 0.00 0.00 0.00 0.00 0.00
0.00 0.00 0.00 0.00 0.00 0.00 0.00 0.00 0.00 0.00 0.00 0.00 0.00 0.00 0.00 0.00 0.00 0.00 0.00 0.00 0.00 0.00 0.00 0.00 0.00 0.00 0.00 0.00 0.00 0.00 0.00 0.00 0.00 0.00 0.00 0.00 0.00 0.00 0.00 0.00 0.00 0.00 0.00 0.00
0.00 0.00 0.00 0.00 0.00 0.00 0.00 0.00 0.00 0.00 0.00 0.00 0.00 0.00 0.00 0.00 0.00 0.00 0.00 0.00 0.00 0.00 0.00 0.00 0.00 0.00 0.00 0.00 0.00 0.00 0.00 0.00 0.00 0.00 0.00 0.00 0.00 0.00 0.00 0.00 0.00 0.00 0.00 0.00
0.00 0.00 0.00 0.00 0.00 0.00 0.00 0.00 0.00 0.00 0.00 0.00 0.00 0.00 0.00 0.00 0.00 0.00 0.00 0.00 0.00 0.00 0.00 0.00 0.00 0.00 0.00 0.00 0.00 0.00 0.00 0.00 0.00 0.00 0.00 0.00 0.00 0.00 0.00 0.00 0.00 0.00 0.00 0.00
0.00 0.00 0.00 0.00 0.00 0.00 0.00 0.00 0.00 0.00 0.00 0.00 0.00 0.00 0.00 0.00 0.00 0.00 0.00 0.00 0.00 0.00 0.00 0.00 0.00 0.00 0.00 0.00 0.00 0.00 0.00 0.00 0.00 0.00 0.00 0.00 0.00 0.00 0.00 0.00 0.00 0.00 0.00 0.00
MSLP
1016.64 1017.72 1018.53 1019.08 1019.39 1019.56 1019.70 1019.90 1020.24 1020.74 1021.37 1022.04 1022.67 1023.15 1023.41 1023.38 1023.10 1022.60 1021.97 1021.30 1020.65 1020.07 1019.59 1019.18 1018.80 1018.39 1017.92 1017.36 1016.70 1015.97 1015.21 1014.48 1013.82 1013.26 1012.82 1012.48 1012.25 1012.10 1012.02 1011.99 1012.04 1012.15 1012.36 1012.68
1018.25 1019.23 1019.92 1020.32 1020.51 1020.57 1020.62 1020.76 1021.07 1021.55 1022.17 1022.83 1023.44 1023.90 1024.11 1024.05 1023.72 1023.18 1022.51 1021.79 1021.10 1020.49 1019.97 1019.52 1019.10 1018.66 1018.16 1017.58 1016.92 1016.21 1015.48 1014.77 1014.12 1013.56 1013.08 1012.68 1012.35 1012.08 1011.87 1011.71 1011.64 1011.68 1011.85 1012.15
1019.61 1020.45 1020.99 1021.26 1021.33 1021.31 1021.31 1021.43 1021.74 1022.22 1022.83 1023.48 1024.06 1024.48 1024.65 1024.54 1024.17 1023.59 1022.88 1022.14 1021.42 1020.77 1020.21 1019.71 1019.25 1018.78 1018.26 1017.68 1017.04 1016.37 1015.69 1015.04 1014.44 1013.89 1013.41 1012.97 1012.56 1012.19 1011.85 1011.58 1011.40 1011.35 1011.46 1011.73
1020.66 1021.33 1021.71 1021.87 1021.86 1021.80 1021.80 1021.95 1022.28 1022.79 1023.41 1024.05 1024.60 1024.97 1025.09 1024.92 1024.50 1023.88 1023.15 1022.37 1021.62 1020.94 1020.34 1019.81 1019.30 1018.80 1018.26 1017.69 1017.08 1016.46 1015.84 1015.26 1014.72 1014.22 1013.75 1013.29 1012.84 1012.39 1011.97 1011.60 1011.34 1011.21 1011.25 1011.48
1021.42 1021.89 1022.14 1022.19 1022.15 1022.11 1022.16 1022.38 1022.78 1023.34 1023.98 1024.61 1025.13 1025.44 1025.49 1025.26 1024.79 1024.13 1023.36 1022.55 1021.78 1021.07 1020.44 1019.87 1019.32 1018.79 1018.24 1017.67 1017.08 1016.50 1015.94 1015.42 1014.94 1014.49 1014.05 1013.60 1013.14 1012.66 1012.19 1011.77 1011.45 1011.26 1011.24 1011.41
1021.94 1022.23 1022.35 1022.35 1022.31 1022.34 1022.49 1022.81 1023.31 1023.94 1024.61 1025.23 1025.70 1025.94 1025.92 1025.61 1025.07 1024.37 1023.56 1022.74 1021.94 1021.22 1020.56 1019.95 1019.38 1018.82 1018.25 1017.67 1017.10 1016.54 1016.02 1015.55 1015.12 1014.71 1014.30 1013.88 1013.43 1012.96 1012.49 1012.06 1011.71 1011.49 1011.43 1011.54
1022.31 1022.44 1022.47 1022.45 1022.47 1022.59 1022.86 1023.31 1023.92 1024.61 1025.31 1025.90 1026.32 1026.48 1026.37 1025.98 1025.37 1024.62 1023.79 1022.95 1022.15 1021.41 1020.74 1020.13 1019.53 1018.95 1018.36 1017.77 1017.19 1016.64 1016.14 1015.68 1015.28 1014.90 1014.52 1014.14 1013.72 1013.28 1012.84 1012.43 1012.10 1011.88 1011.79 1011.85
1022.59 1022.62 1022.60 1022.60 1022.69 1022.93 1023.33 1023.91 1024.61 1025.35 1026.05 1026.61 1026.95 1027.02 1026.81 1026.34 1025.67 1024.87 1024.02 1023.18 1022.39 1021.67 1021.01 1020.39 1019.80 1019.20 1018.60 1017.99 1017.40 1016.84 1016.33 1015.87 1015.47 1015.10 1014.75 1014.39 1014.01 1013.62 1013.23 1012.87 1012.57 1012.37 1012.27 1012.29
1022.82 1022.79 1022.78 1022.84 1023.03 1023.38 1023.91 1024.58 1025.34 1026.11 1026.78 1027.27 1027.52 1027.49 1027.19 1026.64 1025.92 1025.09 1024.24 1023.41 1022.65 1021.96 1021.33 1020.74 1020.15 1019.57 1018.96 1018.35 1017.75 1017.16 1016.63 1016.16 1015.74 1015.36 1015.01 1014.67 1014.33 1013.99 1013.66 1013.35 1013.09 1012.91 1012.81 1012.79
1022.99 1022.99 1023.03 1023.17 1023.46 1023.92 1024.53 1025.27 1026.05 1026.79 1027.40 1027.80 1027.95 1027.82 1027.43 1026.82 1026.06 1025.23 1024.39 1023.60 1022.89 1022.24 1021.66 1021.11 1020.56 1020.00 1019.41 1018.81 1018.20 1017.61 1017.06 1016.56 1016.11 1015.72 1015.36 1015.03 1014.71 1014.40 1014.11 1013.85 1013.63 1013.47 1013.36 1013.31
1023.10 1023.17 1023.31 1023.55 1023.94 1024.48 1025.14 1025.88 1026.63 1027.31 1027.82 1028.12 1028.16 1027.94 1027.48 1026.83 1026.06 1025.25 1024.45 1023.71 1023.06 1022.47 1021.95 1021.45 1020.95 1020.43 1019.88 1019.30 1018.71 1018.13 1017.58 1017.07 1016.61 1016.19 1015.82 1015.48 1015.17 1014.88 1014.61 1014.37 1014.17 1014.00 1013.89 1013.80
1023.15 1023.35 1023.60 1023.95 1024.41 1024.99 1025.65 1026.36 1027.03 1027.60 1028.00 1028.18 1028.12 1027.82 1027.32 1026.66 1025.91 1025.14 1024.41 1023.73 1023.14 1022.62 1022.15 1021.71 1021.26 1020.79 1020.29 1019.76 1019.22 1018.67 1018.14 1017.64 1017.18 1016.76 1016.38 1016.03 1015.71 1015.41 1015.14 1014.90 1014.70 1014.52 1014.38 1014.25
1023.18 1023.51 1023.88 1024.31 1024.82 1025.41 1026.03 1026.65 1027.20 1027.64 1027.91 1027.98 1027.83 1027.49 1026.97 1026.34 1025.64 1024.94 1024.27 1023.67 1023.14 1022.67 1022.25 1021.86 1021.46 1021.04 1020.59 1020.13 1019.64 1019.15 1018.68 1018.22 1017.79 1017.38 1017.00 1016.64 1016.31 1016.00 1015.72 1015.46 1015.23 1015.03 1014.85 1014.69
1023.25 1023.69 1024.15 1024.64 1025.16 1025.70 1026.24 1026.74 1027.16 1027.45 1027.59 1027.56 1027.35 1026.99 1026.50 1025.91 1025.30 1024.68 1024.09 1023.56 1023.08 1022.65 1022.26 1021.89 1021.52 1021.14 1020.75 1020.35 1019.94 1019.53 1019.13 1018.74 1018.36 1017.99 1017.63 1017.28 1016.95 1016.63 1016.32 1016.04 1015.79 1015.55 1015.34 1015.14
1023.41 1023.94 1024.45 1024.95 1025.43 1025.89 1026.30 1026.66 1026.92 1027.07 1027.09 1026.98 1026.74 1026.39 1025.95 1025.45 1024.93 1024.40 1023.90 1023.43 1022.99 1022.59 1022.20 1021.83 1021.47 1021.11 1020.76 1020.42 1020.08 1019.76 1019.45 1019.15 1018.84 1018.54 1018.22 1017.90 1017.58 1017.26 1016.95 1016.65 1016.37 1016.11 1015.87 1015.64
1023.72 1024.27 1024.77 1025.23 1025.62 1025.96 1026.23 1026.42 1026.52 1026.54 1026.45 1026.29 1026.04 1025.73 1025.37 1024.97 1024.56 1024.15 1023.73 1023.32 1022.91 1022.51 1022.11 1021.72 1021.34 1020.98 1020.65 1020.35 1020.09 1019.85 1019.63 1019.42 1019.21 1018.98 1018.73 1018.46 1018.17 1017.87 1017.57 1017.27 1016.99 1016.72 1016.46 1016.21
1024.15 1024.66 1025.10 1025.46 1025.74 1025.92 1026.03 1026.05 1026.00 1025.89 1025.73 1025.53 1025.30 1025.05 1024.79 1024.51 1024.22 1023.91 1023.58 1023.23 1022.84 1022.44 1022.01 1021.59 1021.18 1020.81 1020.48 1020.20 1019.99 1019.82 1019.68 1019.57 1019.44 1019.30 1019.13 1018.93 1018.69 1018.44 1018.16 1017.89 1017.62 1017.36 1017.11 1016.85
1024.64 1025.06 1025.39 1025.61 1025.73 1025.75 1025.69 1025.55 1025.37 1025.16 1024.94 1024.73 1024.53 1024.36 1024.20 1024.04 1023.88 1023.68 1023.44 1023.14 1022.78 1022.37 1021.93 1021.47 1021.03 1020.63 1020.30 1020.03 1019.84 1019.72 1019.66 1019.61 1019.58 1019.52 1019.43 1019.31 1019.14 1018.94 1018.72 1018.49 1018.25 1018.02 1017.78 1017.53
1025.05 1025.34 1025.52 1025.58 1025.54 1025.40 1025.18 1024.91 1024.62 1024.34 1024.08 1023.88 1023.73 1023.64 1023.58 1023.55 1023.50 1023.41 1023.26 1023.03 1022.71 1022.32 1021.87 1021.39 1020.93 1020.51 1020.16 1019.89 1019.72 1019.63 1019.61 1019.62 1019.65 1019.66 1019.65 1019.60 1019.51 1019.38 1019.22 1019.04 1018.85 1018.65 1018.44 1018.21
1025.23 1025.37 1025.40 1025.31 1025.11 1024.83 1024.49 1024.12 1023.76 1023.43 1023.17 1022.99 1022.90 1022.89 1022.93 1023.00 1023.06 1023.08 1023.02 1022.86 1022.60 1022.24 1021.82 1021.35 1020.89 1020.46 1020.10 1019.84 1019.67 1019.59 1019.59 1019.64 1019.71 1019.78 1019.82 1019.84 1019.82 1019.75 1019.66 1019.55 1019.41 1019.24 1019.05 1018.83
1025.08 1025.07 1024.95 1024.72 1024.41 1024.02 1023.60 1023.18 1022.79 1022.46 1022.22 1022.08 1022.05 1022.11 1022.24 1022.40 1022.56 1022.67 1022.70 1022.63 1022.44 1022.14 1021.77 1021.34 1020.90 1020.49 1020.15 1019.88 1019.71 1019.64 1019.64 1019.70 1019.79 1019.89 1019.98 1020.05 1020.08 1020.08 1020.05 1019.99 1019.89 1019.76 1019.59 1019.38
1024.53 1024.39 1024.15 1023.83 1023.43 1023.00 1022.55 1022.12 1021.75 1021.46 1021.26 1021.18 1021.21 1021.34 1021.55 1021.79 1022.02 1022.21 1022.33 1022.34 1022.23 1022.02 1021.72 1021.35 1020.97 1020.60 1020.27 1020.02 1019.85 1019.77 1019.77 1019.82 1019.91 1020.03 1020.14 1020.24 1020.32 1020.37 1020.38 1020.37 1020.31 1020.21 1020.05 1019.84
1023.61 1023.37 1023.04 1022.66 1022.24 1021.81 1021.39 1021.01 1020.70 1020.48 1020.36 1020.35 1020.45 1020.64 1020.90 1021.20 1021.49 1021.75 1021.93 1022.02 1022.00 1021.88 1021.66 1021.38 1021.07 1020.75 1020.46 1020.23 1020.06 1019.97 1019.95 1019.99 1020.07 1020.18 1020.30 1020.42 1020.53 1020.61 1020.67 1020.68 1020.66 1020.58 1020.43 1020.22
1022.41 1022.09 1021.71 1021.31 1020.92 1020.54 1020.20 1019.92 1019.71 1019.60 1019.57 1019.65 1019.82 1020.06 1020.36 1020.70 1021.03 1021.32 1021.56 1021.71 1021.77 1021.73 1021.60 1021.41 1021.17 1020.91 1020.67 1020.46 1020.30 1020.19 1020.15 1020.17 1020.23 1020.32 1020.44 1020.57 1020.69 1020.81 1020.89 1020.94 1020.94 1020.88 1020.75 1020.55
1021.05 1020.68 1020.29 1019.91 1019.57 1019.29 1019.07 1018.92 1018.85 1018.86 1018.95 1019.11 1019.35 1019.64 1019.97 1020.32 1020.67 1020.98 1021.25 1021.45 1021.56 1021.59 1021.54 1021.42 1021.25 1021.05 1020.85 1020.66 1020.50 1020.38 1020.32 1020.31 1020.34 1020.42 1020.53 1020.66 1020.80 1020.94 1021.05 1021.13 1021.16 1021.13 1021.02 1020.84
1019.68 1019.26 1018.88 1018.55 1018.30 1018.14 1018.06 1018.06 1018.14 1018.29 1018.50 1018.75 1019.05 1019.38 1019.73 1020.08 1020.43 1020.74 1021.02 1021.23 1021.39 1021.47 1021.47 1021.41 1021.30 1021.14 1020.97 1020.79 1020.63 1020.50 1020.41 1020.37 1020.38 1020.44 1020.55 1020.68 1020.83 1020.99 1021.13 1021.24 1021.31 1021.31 1021.24 1021.09
Thickness
5745 5729 5711 5713 5718 5720 5716 5707 5700 5699 5698 5686 5673 5667 5667 5672 5673 5671 5670 5672 5674 5677 5683 5688 5693 5697 5701 5707 5712 5717 5722 5728 5734 5740 5745 5749 5753 5756 5758 5758 5757 5756 5755 5753
5721 5707 5713 5718 5716 5711 5705 5695 5691 5690 5690 5677 5663 5658 5661 5661 5659 5658 5657 5658 5660 5665 5670 5673 5678 5682 5687 5691 5696 5702 5708 5715 5722 5728 5734 5741 5747 5751 5754 5755 5755 5754 5752 5750
5706 5705 5713 5707 5697 5694 5693 5686 5683 5680 5675 5666 5658 5648 5645 5649 5650 5650 5649 5649 5649 5651 5654 5658 5663 5667 5672 5677 5682 5688 5694 5702 5709 5717 5725 5733 5739 5743 5746 5748 5749 5750 5749 5747
5704 5705 5702 5695 5689 5684 5677 5685 5681 5677 5660 5643 5646 5630 5629 5631 5634 5636 5636 5637 5637 5639 5642 5645 5649 5653 5658 5664 5670 5676 5682 5689 5696 5704 5712 5719 5726 5731 5737 5740 5743 5744 5744 5743
5697 5698 5691 5685 5685 5683 5677 5678 5672 5667 5651 5632 5626 5620 5616 5619 5619 5622 5624 5625 5627 5628 5631 5633 5637 5641 5647 5652 5658 5664 5670 5677 5685 5692 5700 5707 5715 5722 5728 5732 5734 5735 5736 5736
5695 5698 5692 5685 5685 5682 5674 5670 5661 5647 5635 5617 5614 5611 5606 5607 5607 5611 5615 5616 5617 5619 5622 5625 5629 5634 5638 5643 5648 5654 5659 5666 5674 5681 5689 5696 5703 5711 5716 5720 5722 5724 5725 5727
5682 5683 5685 5685 5673 5671 5661 5650 5635 5629 5612 5609 5614 5607 5601 5606 5607 5606 5606 5609 5611 5612 5615 5618 5622 5626 5631 5635 5640 5645 5650 5656 5663 5670 5677 5684 5691 5698 5703 5707 5710 5713 5714 5716
5671 5662 5674 5675 5665 5658 5651 5641 5626 5619 5610 5604 5608 5601 5602 5608 5607 5606 5605 5605 5607 5608 5611 5614 5618 5621 5625 5629 5634 5639 5643 5648 5655 5661 5668 5674 5680 5686 5690 5694 5698 5701 5703 5705
5666 5662 5676 5675 5668 5661 5649 5634 5633 5616 5610 5602 5601 5604 5607 5608 5605 5605 5604 5605 5605 5606 5608 5612 5615 5619 5623 5626 5630 5633 5638 5643 5648 5654 5659 5664 5669 5674 5678 5683 5686 5689 5692 5694
5676 5663 5667 5669 5667 5657 5646 5636 5622 5613 5603 5596 5597 5596 5592 5596 5598 5600 5601 5601 5602 5605 5607 5610 5613 5616 5620 5623 5627 5630 5634 5637 5641 5646 5651 5655 5659 5664 5668 5672 5675 5678 5681 5683
5680 5662 5659 5659 5650 5643 5640 5632 5616 5603 5599 5591 5589 5591 5601 5597 5598 5597 5599 5601 5602 5604 5606 5608 5611 5614 5617 5621 5624 5627 5630 5633 5636 5640 5643 5647 5650 5654 5658 5661 5664 5667 5669 5671
5676 5657 5648 5655 5659 5656 5642 5630 5619 5607 5595 5594 5592 5592 5609 5603 5602 5601 5602 5604 5605 5606 5608 5610 5613 5615 5617 5619 5622 5624 5627 5629 5631 5634 5637 5640 5643 5647 5650 5652 5654 5657 5659 5661
5679 5660 5645 5646 5646 5649 5641 5632 5621 5609 5599 5594 5593 5596 5613 5608 5606 5606 5605 5606 5608 5610 5612 5613 5615 5615 5617 5618 5620 5622 5624 5626 5628 5631 5633 5635 5637 5639 5641 5643 5646 5648 5650 5651
5683 5660 5652 5646 5644 5645 5641 5635 5627 5616 5601 5600 5601 5603 5608 5608 5607 5609 5609 5610 5611 5613 5615 5616 5617 5618 5619 5620 5621 5622 5623 5625 5627 5628 5630 5631 5632 5633 5635 5637 5639 5640 5641 5642
5685 5664 5661 5658 5658 5652 5646 5640 5632 5624 5614 5606 5610 5609 5611 5612 5612 5612 5614 5615 5617 5618 5620 5621 5621 5622 5622 5623 5623 5624 5624 5625 5626 5627 5627 5627 5628 5630 5630 5631 5632 5633 5634 5635
5682 5669 5665 5659 5659 5655 5648 5645 5639 5632 5624 5620 5619 5616 5623 5622 5620 5620 5620 5620 5620 5622 5624 5626 5627 5627 5628 5627 5627 5627 5626 5626 5626 5626 5625 5625 5626 5626 5626 5626 5626 5627 5627 5628
5677 5670 5658 5651 5657 5652 5645 5650 5645 5641 5636 5630 5624 5627 5633 5630 5629 5628 5627 5626 5626 5628 5629 5630 5632 5632 5632 5632 5631 5630 5629 5628 5627 5626 5625 5624 5623 5622 5622 5623 5622 5621 5620 5621
5680 5667 5652 5649 5652 5645 5659 5668 5661 5653 5649 5643 5641 5640 5640 5638 5638 5637 5636 5635 5634 5635 5636 5636 5637 5638 5638 5638 5637 5636 5634 5631 5629 5627 5625 5623 5622 5621 5620 5619 5617 5616 5615 5614
5685 5672 5656 5647 5648 5653 5668 5671 5666 5657 5654 5657 5651 5650 5649 5647 5644 5642 5647 5645 5643 5643 5643 5642 5643 5643 5643 5643 5642 5640 5637 5635 5632 5628 5626 5624 5622 5620 5618 5616 5614 5612 5611 5609
5682 5676 5662 5653 5659 5659 5677 5684 5680 5669 5658 5669 5663 5657 5654 5648 5636 5640 5652 5652 5651 5651 5649 5648 5648 5648 5647 5647 5646 5643 5640 5637 5634 5631 5628 5626 5623 5620 5617 5614 5612 5610 5608 5605
5684 5674 5666 5658 5660 5668 5688 5688 5682 5657 5665 5680 5674 5667 5660 5653 5651 5655 5658 5658 5657 5656 5654 5653 5651 5650 5649 5650 5649 5646 5643 5641 5638 5635 5632 5628 5624 5621 5617 5614 5611 5608 5606 5603
5685 5675 5667 5660 5662 5673 5696 5690 5682 5684 5690 5687 5681 5676 5669 5665 5665 5664 5663 5662 5661 5658 5657 5656 5653 5653 5653 5652 5651 5649 5646 5644 5642 5638 5634 5629 5625 5622 5618 5614 5611 5607 5605 5602
5692 5694 5686 5685 5694 5707 5705 5706 5708 5702 5696 5691 5686 5682 5677 5673 5670 5670 5668 5666 5664 5662 5660 5658 5656 5655 5655 5654 5653 5651 5649 5648 5645 5640 5635 5630 5626 5622 5618 5614 5611 5607 5604 5601
5702 5701 5696 5694 5705 5710 5711 5711 5711 5707 5704 5699 5694 5689 5683 5678 5676 5673 5669 5667 5665 5663 5661 5659 5658 5657 5656 5656 5655 5654 5653 5651 5647 5642 5637 5632 5628 5623 5619 5615 5611 5608 5604 5601
5713 5701 5700 5703 5712 5716 5718 5715 5715 5711 5708 5703 5698 5694 5688 5683 5679 5676 5671 5669 5667 5665 5663 5661 5660 5659 5658 5658 5657 5657 5656 5653 5649 5644 5640 5635 5630 5625 5620 5616 5613 5609 5606 5602
5714 5713 5711 5715 5725 5721 5724 5726 5721 5714 5710 5706 5701 5695 5692 5688 5683 5679 5674 5672 5669 5667 5665 5663 5662 5661 5660 5659 5659 5659 5658 5656 5652 5647 5642 5637 5632 5628 5623 5619 5616 5613 5609 5606